Location: Lachaise
(45.8833°N, 1.8500°E)
Time: 18:26:00
(UTC+00:00)

Cosmos 1315 Rocket - Pass Details

Date: 07 June 2020
Orbit: 529 x 568 km, 81.2° (Epoch: 09 July)

Event Time Altitude Azimuth Distance (km) Brightness Sun altitude
Rises 02:12:47 0° 342° (NNW) 2,685 6.9 -14.2°
Reaches altitude 10° 02:15:00 10° 336° (NNW) 1,792 5.9 -14.0°
Maximum altitude 02:18:44 42° 265° (W) 767 3.2 -13.6°
Enters shadow 02:20:50 22° 206° (SSW) 1,196 3.9 -13.4°
